TimeCDT,TemperatureF,Dew PointF,Humidity,Sea Level PressureIn,VisibilityMPH,Wind Direction,Wind SpeedMPH,Gust SpeedMPH,PrecipitationIn,Events,Conditions,WindDirDegrees,DateUTC
12:53 AM,57.9,46.0,65,29.90,10.0,SSW,4.6,-,N/A,,Mostly Cloudy,200,2013-04-07 05:53:00
1:53 AM,57.9,46.9,67,29.90,10.0,SSW,5.8,-,N/A,,Overcast,200,2013-04-07 06:53:00
2:53 AM,60.1,48.0,64,29.89,10.0,SW,6.9,-,N/A,,Overcast,220,2013-04-07 07:53:00
3:53 AM,59.0,48.9,69,29.89,10.0,SSW,6.9,-,N/A,,Overcast,210,2013-04-07 08:53:00
4:53 AM,60.1,50.0,69,29.90,10.0,SSW,9.2,-,N/A,,Overcast,210,2013-04-07 09:53:00
5:53 AM,60.1,50.0,69,29.91,10.0,SSW,9.2,-,N/A,,Overcast,210,2013-04-07 10:53:00
6:53 AM,60.1,51.1,72,29.92,10.0,SSW,8.1,-,N/A,,Overcast,210,2013-04-07 11:53:00
7:53 AM,61.0,52.0,72,29.94,10.0,SSW,8.1,-,N/A,,Overcast,210,2013-04-07 12:53:00
8:53 AM,63.0,53.1,70,29.95,10.0,SSW,13.8,-,N/A,,Overcast,210,2013-04-07 13:53:00
9:53 AM,64.9,53.1,65,29.95,10.0,SSW,13.8,-,N/A,,Overcast,210,2013-04-07 14:53:00
10:53 AM,66.9,54.0,63,29.96,10.0,SSW,15.0,-,N/A,,Overcast,210,2013-04-07 15:53:00
11:53 AM,70.0,55.0,59,29.95,10.0,South,15.0,-,N/A,,Clear,190,2013-04-07 16:53:00
12:53 PM,72.0,57.0,59,29.94,10.0,SSW,12.7,-,N/A,,Clear,200,2013-04-07 17:53:00
1:53 PM,73.9,57.0,55,29.92,10.0,SSW,11.5,-,N/A,,Clear,200,2013-04-07 18:53:00
2:53 PM,73.0,55.9,55,29.90,10.0,SSW,12.7,-,N/A,,Mostly Cloudy,200,2013-04-07 19:53:00
3:53 PM,73.9,57.9,57,29.88,10.0,South,16.1,21.9,N/A,,Scattered Clouds,170,2013-04-07 20:53:00
4:53 PM,73.0,57.9,59,29.88,10.0,South,17.3,23.0,N/A,,Clear,180,2013-04-07 21:53:00
5:53 PM,70.0,57.0,63,29.88,10.0,South,18.4,24.2,N/A,,Partly Cloudy,180,2013-04-07 22:53:00
6:53 PM,69.1,57.0,65,29.89,10.0,South,12.7,-,N/A,,Mostly Cloudy,180,2013-04-07 23:53:00
7:53 PM,66.0,55.9,70,29.88,10.0,South,10.4,-,N/A,,Partly Cloudy,180,2013-04-08 00:53:00
8:53 PM,64.0,55.0,73,29.91,10.0,South,6.9,-,N/A,,Clear,170,2013-04-08 01:53:00
9:53 PM,64.0,54.0,70,29.91,10.0,South,8.1,-,N/A,,Clear,170,2013-04-08 02:53:00
10:53 PM,61.0,53.1,75,29.90,10.0,South,4.6,-,N/A,,Clear,190,2013-04-08 03:53:00
11:53 PM,62.1,53.1,72,29.88,10.0,South,6.9,-,N/A,,Partly Cloudy,180,2013-04-08 04:53:00